User: anonymous   Login
Location: Altleiningen
(49.5078°N, 8.0741°E)
Time: 20:27:03
(UTC+00:00)
Language:

Cosmos 2278 Rocket - Orbit

View from above orbital plane
View from above orbital plane
View from above satellite
View from above satellite

Ground track
Ground track

The orbit data is extracted from the following two-line orbital elements,

1 23088U 94023B   21136.50787640 -.00000139  00000-0 -47601-4 0  9996
2 23088  70.9989 162.0617 0000828  77.6884 282.4331 14.14689410397411
Epoch (UTC): 16 May 2021 12:11:20
Eccentricity: 0.0000828
inclination: 70.9989°
perigee height: 843 km
apogee height: 844 km
right ascension of ascending node: 162.0617°
argument of perigee: 77.6884°
revolutions per day: 14.14689410
mean anomaly at epoch: 282.4331°
orbit number at epoch: 39741

The dashed part of the orbit path shows where the satellite is in the earth's shadow,  

DLR